Location: Alincthun
(50.7310°N, 1.8022°E)
Time: 21:46:57
(UTC+00:00)

COSMO-SKYMED 1 - Pass Details

Date: 17 February 2020
Orbit: 621 x 623 km, 97.9° (Epoch: 29 March)

Event Time Altitude Azimuth Distance (km) Brightness Sun altitude
Rises 05:36:26 0° 187° (S) 2,894 5.9 -14.2°
Reaches altitude 10° 05:38:46 10° 196° (SSW) 1,992 5.0 -13.8°
Maximum altitude 05:42:45 35° 263° (W) 1,007 3.1 -13.2°
Drops below altitude 10° 05:46:47 10° 330° (NNW) 2,008 4.9 -12.5°
Sets 05:49:09 0° 340° (NNW) 2,920 5.8 -12.2°
